Temperature
28 28 28 28 27 27 27 27 27 27 27 28 28 27 27 25 24 23 22 21 21 20 20 19 19 18 17 17 16 15 14 14 13 12 12 11 11 10 10 10 10 9 9 9
27 28 28 27 27 27 27 27 27 27 27 28 27 26 25 25 24 23 22 22 21 21 20 20 19 18 17 17 16 15 14 14 13 12 12 11 11 10 10 10 9 9 9 9
26 27 27 26 27 27 27 28 27 27 28 28 27 26 26 25 24 24 23 23 22 21 20 20 19 18 18 17 16 15 14 14 13 12 12 11 11 10 10 9 9 9 9 9
26 26 25 27 29 28 27 28 28 27 28 27 27 26 25 24 24 24 23 23 22 21 21 20 19 18 18 17 16 15 14 14 13 12 12 11 11 10 10 9 9 9 9 9
26 25 26 28 28 28 27 27 28 28 28 27 26 25 26 25 24 24 24 23 22 22 21 20 19 19 18 17 16 15 15 14 13 12 12 11 10 10 10 9 9 9 8 8
25 24 24 26 27 27 27 26 28 27 27 27 26 26 27 26 25 24 23 23 22 22 21 20 20 19 18 17 16 15 15 14 13 13 12 12 11 11 10 9 9 9 8 8
24 24 25 27 26 26 25 25 26 26 26 26 26 26 26 26 25 24 23 23 22 21 21 20 20 19 18 17 16 15 14 14 13 13 12 12 11 11 10 9 9 9 9 9
25 24 25 26 26 26 24 23 24 24 24 24 24 24 24 24 23 23 22 22 21 21 21 20 20 19 18 17 16 15 14 14 13 13 12 11 11 11 10 9 9 9 9 9
26 26 25 24 23 22 21 21 21 22 22 23 23 23 23 23 22 22 21 21 20 20 20 19 19 19 18 18 16 16 15 14 14 13 12 12 11 10 10 9 9 9 9 9
25 26 24 21 20 19 19 19 19 20 20 21 21 21 21 21 20 20 20 19 19 19 18 18 19 19 18 17 16 16 15 14 14 13 12 11 11 10 10 9 9 9 9 9
24 24 23 20 17 17 17 17 18 18 18 19 19 19 19 18 18 18 18 18 18 18 17 17 17 18 18 17 16 15 15 14 13 12 12 12 11 11 10 9 9 9 8 8
23 20 21 18 16 16 17 17 17 17 17 17 17 17 17 17 17 17 17 17 17 16 16 16 16 17 16 16 16 15 14 13 13 12 12 11 11 10 10 10 9 9 9 8
18 18 17 16 16 16 16 16 16 16 16 16 16 16 16 16 16 16 16 16 16 16 16 16 16 16 15 15 15 15 14 13 13 12 12 11 11 10 10 10 10 9 9 9
16 16 16 15 16 16 16 16 16 16 16 15 15 15 15 15 15 15 15 15 15 15 15 15 15 14 14 14 14 14 13 13 12 12 11 11 11 10 10 10 10 9 9 8
15 15 15 15 15 15 15 15 15 15 15 15 14 14 14 14 14 14 14 14 14 14 13 13 13 13 13 12 12 12 12 12 11 11 11 11 10 10 10 10 9 9 9 9
15 15 14 14 14 14 14 14 14 14 14 14 14 13 13 13 13 13 12 12 12 12 12 12 12 12 12 11 11 11 11 12 11 11 11 11 10 10 10 10 9 9 9 9
14 14 13 13 13 13 13 13 13 13 13 13 12 12 12 12 12 12 11 11 11 11 11 11 11 11 10 10 10 11 11 11 11 10 10 10 10 10 9 9 9 9 9 8
12 12 12 12 12 12 12 12 12 12 12 12 12 11 11 11 11 11 10 10 11 11 11 10 10 10 10 10 10 10 11 11 11 10 10 9 9 9 9 9 8 8 8 8
12 11 11 11 11 11 11 11 11 11 11 11 11 11 10 10 10 10 10 10 10 10 10 9 9 9 9 9 9 9 9 10 10 10 9 9 8 9 9 8 8 8 8 8
11 11 11 11 11 11 11 11 11 10 10 10 10 10 10 10 10 10 10 10 10 9 9 8 8 9 9 9 9 9 9 9 9 9 9 8 8 8 8 8 8 7 7 7
11 11 11 11 11 11 10 10 10 10 10 10 10 10 10 9 9 9 9 9 9 8 8 8 8 8 8 8 8 8 8 8 8 8 8 8 7 7 7 7 7 7 7 7
11 11 11 10 10 10 10 10 10 10 10 9 9 9 9 9 9 9 9 9 8 8 8 8 8 7 7 7 7 7 7 7 7 7 7 7 6 6 6 6 6 6 6 6
10 10 10 10 10 10 9 9 10 10 9 9 9 9 9 9 9 9 9 8 8 7 7 7 7 6 6 6 6 6 6 6 6 6 6 5 5 5 5 5 5 5 5 5
10 10 10 9 9 9 9 9 9 9 9 9 9 9 9 9 9 9 8 8 7 6 6 6 6 6 5 5 5 5 5 5 5 5 5 5 5 5 5 4 4 5 5 5
9 9 9 9 9 9 9 9 9 9 9 9 9 9 9 9 8 8 7 7 6 6 6 5 5 5 4 4 4 4 4 4 4 4 4 4 4 4 4 4 4 4 4 5
9 9 9 9 9 8 9 9 9 9 9 9 9 9 8 8 8 7 7 6 6 5 5 4 4 3 3 3 3 3 3 3 3 3 3 3 3 3 3 3 3 3 4 4
9 9 9 9 9 9 9 9 9 9 8 8 8 8 8 7 7 7 6 6 5 5 4 3 3 2 2 2 2 1 1 2 2 2 2 2 2 2 2 3 3 3 4 4
Wind_Speed
10 8 8 10 10 9 11 12 13 12 11 8 5 4 5 7 9 10 10 11 11 10 9 9 9 8 8 7 7 7 8 9 9 9 10 10 10 11 11 11 12 12 12 12
12 10 9 11 11 11 10 10 11 11 10 5 1 3 5 7 9 10 11 12 12 11 10 10 9 9 8 8 7 7 8 9 9 9 10 10 10 11 11 11 12 12 12 13
12 9 9 11 8 7 6 7 8 10 8 3 2 4 6 7 9 11 11 11 12 12 11 10 9 9 9 8 7 7 8 9 9 9 10 10 11 11 11 12 12 12 12 12
11 9 11 6 1 4 7 8 8 9 8 5 5 4 6 8 9 11 11 11 12 12 11 10 10 9 8 8 7 8 8 8 9 9 10 10 10 11 11 11 11 11 12 12
8 11 11 7 4 4 7 9 6 6 7 5 3 5 9 10 12 12 12 12 11 12 12 10 10 10 9 9 8 8 9 8 8 9 10 10 11 11 11 11 11 12 12 12
7 8 8 4 4 1 5 7 4 3 7 7 4 9 8 4 8 12 13 12 12 12 11 11 11 11 10 10 9 9 9 8 8 8 9 10 11 11 11 11 12 12 12 12
8 8 8 3 3 2 6 6 11 10 10 10 9 11 12 8 7 10 11 12 12 12 12 12 12 12 11 11 10 9 8 8 8 8 9 10 10 10 11 11 12 12 13 13
6 8 4 6 3 4 8 11 12 13 12 12 12 14 14 12 10 10 10 11 11 11 12 11 12 12 12 11 9 8 7 8 9 9 9 9 10 11 11 11 12 12 12 12
5 6 5 6 6 8 10 12 13 13 14 13 13 14 14 12 11 10 10 10 10 11 12 11 12 12 13 11 9 8 8 9 9 9 9 10 11 11 11 10 10 10 10 11
7 6 4 8 10 10 10 10 11 11 11 11 10 11 11 10 9 8 8 7 8 9 11 11 11 12 12 10 9 9 10 10 9 9 10 10 9 10 10 10 10 10 10 11
9 5 1 7 12 11 10 11 11 11 11 11 10 10 10 9 9 9 8 6 5 6 8 9 10 10 10 10 10 10 11 10 10 10 10 9 10 10 11 10 9 11 11 11
3 4 4 5 9 9 10 12 12 13 13 14 14 13 12 11 11 10 9 8 6 5 6 7 7 8 9 10 11 11 10 10 10 9 8 9 10 11 12 14 13 14 16 16
1 4 6 6 8 9 9 10 11 12 13 13 14 14 13 12 11 11 10 9 8 7 6 6 6 7 8 9 11 12 12 11 10 10 9 9 9 10 11 10 16 19 20 19
6 7 8 7 8 9 10 10 11 12 13 13 13 13 13 13 12 12 12 11 10 9 8 7 8 8 8 9 11 12 13 13 12 10 10 10 10 10 10 11 11 10 11 17
10 9 9 8 9 10 11 11 12 13 14 14 13 13 13 13 13 12 12 12 12 11 11 11 11 11 10 10 11 13 13 12 11 10 10 9 9 10 10 11 11 11 10 8
10 10 9 9 10 11 12 13 13 13 14 13 13 13 13 12 12 12 13 13 14 15 15 14 14 14 13 12 12 12 13 14 12 10 10 10 9 10 10 10 10 10 9 10
9 9 9 10 10 11 12 12 12 12 13 13 14 14 13 13 13 13 14 15 15 14 14 14 15 15 15 14 14 13 13 11 13 12 11 10 9 10 10 10 10 10 10 8
8 7 6 7 8 10 12 12 13 13 13 13 14 13 13 13 14 14 15 16 16 16 15 16 17 19 18 15 13 12 12 11 10 11 9 8 8 8 9 9 10 11 10 8
6 6 6 7 8 9 11 12 13 13 13 12 13 13 13 13 14 15 16 17 18 17 17 19 19 19 18 15 11 10 11 11 10 9 8 7 7 8 8 8 9 9 9 9
4 6 7 9 10 11 12 12 13 13 13 13 13 14 14 15 15 16 17 16 15 15 18 19 20 18 16 13 10 10 10 10 9 8 7 7 7 7 8 8 8 9 9 8
6 8 10 12 12 12 12 13 13 13 14 13 14 14 15 16 16 16 16 16 15 15 17 18 15 14 14 12 11 10 9 7 7 6 5 5 6 7 8 8 8 8 8 8
9 10 12 13 13 13 13 13 14 14 14 14 15 16 16 16 17 16 16 14 15 13 15 16 14 14 15 14 10 8 6 5 4 4 4 5 5 6 7 7 7 7 8 8
11 11 12 13 14 14 15 15 15 15 15 15 16 16 16 16 15 15 15 13 14 14 14 14 13 14 14 11 9 7 5 4 3 3 4 4 5 6 7 7 7 7 7 7
12 13 13 14 15 16 16 16 16 15 16 16 16 16 15 15 14 13 14 13 12 12 13 11 11 12 11 8 8 6 5 4 3 3 4 4 5 5 6 6 7 7 7 8
13 14 15 15 15 14 15 16 16 15 16 14 15 16 14 13 13 14 13 14 12 11 11 9 9 10 9 7 7 7 6 5 4 4 4 5 5 5 6 7 7 7 7 7
13 14 14 14 14 14 14 14 13 13 13 14 13 13 13 13 14 13 11 12 12 9 9 8 8 8 7 7 6 6 5 5 5 5 6 6 6 6 6 7 8 7 7 7
14 14 13 13 13 12 12 12 13 13 13 13 13 13 13 13 12 12 11 10 9 8 7 7 7 7 7 7 7 7 7 7 7 7 7 6 6 6 7 8 7 7 7 7
Wind_Direction
276 283 279 282 284 269 258 274 283 294 297 302 299 255 231 214 207 205 202 203 207 211 212 213 216 220 229 239 248 256 264 272 277 279 280 280 279 278 278 278 278 280 282 281
269 266 269 274 277 277 271 268 272 281 286 299 282 222 219 216 215 215 216 215 216 217 219 218 219 222 226 233 242 248 260 272 280 282 283 282 281 280 280 279 281 282 280 279
270 268 266 265 265 273 271 269 274 285 304 328 253 234 241 236 229 230 229 225 223 223 223 222 219 217 221 228 236 245 257 269 277 280 283 285 285 285 284 284 284 281 279 278
268 267 261 273 271 280 283 285 277 279 288 280 269 269 256 247 243 239 236 232 228 228 225 220 216 211 214 221 229 244 257 269 277 281 283 285 284 284 285 286 285 282 280 280
265 261 259 263 239 251 276 288 295 286 289 277 256 263 255 235 232 239 240 235 233 232 230 219 213 208 207 220 231 244 256 266 276 282 285 286 285 286 288 287 284 282 279 279
249 268 272 303 54 7 276 273 2 325 301 295 245 277 298 295 228 232 236 235 231 229 225 212 206 201 208 222 232 242 255 264 273 277 281 283 285 286 287 285 282 282 282 280
248 257 263 12 51 221 261 346 359 334 314 301 270 276 303 300 257 240 238 236 231 227 222 214 201 196 209 224 233 243 254 260 265 270 275 277 280 280 282 282 283 283 284 282
251 263 289 67 5 321 339 338 332 325 317 308 291 285 289 287 275 263 255 246 234 226 225 215 200 197 211 223 230 237 247 255 262 267 274 279 277 277 278 279 279 278 279 281
276 289 16 24 1 355 342 327 325 322 318 312 300 293 295 293 288 279 270 262 248 236 232 219 205 204 214 219 218 223 234 247 256 263 267 271 273 275 274 270 272 280 284 286
274 278 10 38 28 12 0 346 338 336 332 329 320 318 320 322 322 317 304 287 267 251 242 228 213 210 214 212 209 217 229 240 248 257 262 264 266 269 271 274 275 279 281 284
263 286 315 57 24 13 17 19 17 19 21 15 11 8 5 4 0 353 344 329 299 267 254 244 225 217 213 207 205 219 233 239 247 255 261 269 267 266 270 271 278 282 286 287
312 34 352 35 25 25 34 35 33 32 33 32 30 26 25 25 20 13 6 357 339 311 285 268 243 227 218 213 208 217 232 240 246 251 255 261 270 272 239 236 248 244 249 261
345 54 76 80 48 37 39 38 37 35 31 27 25 21 20 19 16 13 9 3 351 334 314 291 269 254 241 227 220 220 232 240 245 251 255 256 263 272 281 257 230 234 240 242
120 112 87 67 53 41 36 33 33 32 27 23 18 13 10 8 7 6 3 357 350 341 328 313 297 283 269 247 236 234 239 240 239 247 252 258 263 269 274 282 287 281 248 230
95 96 93 76 55 40 30 23 20 17 11 8 6 3 0 358 354 354 353 351 347 339 334 326 314 306 297 274 255 247 246 247 241 245 250 255 261 266 271 274 278 283 290 269
103 90 74 57 39 24 16 11 5 359 355 351 351 350 348 345 344 346 347 347 342 336 332 326 319 315 309 289 271 259 251 246 243 245 250 253 257 263 269 274 278 281 283 287
95 71 49 32 19 8 0 353 347 342 340 339 338 339 339 340 340 344 344 342 336 330 327 328 327 325 315 298 281 271 265 250 216 236 246 252 259 265 270 276 281 283 284 288
75 58 34 11 357 348 342 341 338 334 332 331 330 332 334 335 335 336 335 333 329 325 328 332 333 325 312 300 288 277 269 262 249 241 243 245 256 265 273 279 282 285 288 284
55 32 11 356 345 336 334 333 332 330 327 326 325 325 325 326 328 328 329 326 323 323 334 333 329 317 312 307 297 280 269 262 255 248 246 241 249 263 272 277 283 287 290 293
18 360 348 341 340 336 331 330 328 326 325 323 321 321 321 323 323 323 324 319 322 330 330 329 323 317 316 317 316 294 280 269 260 253 251 257 262 271 279 284 288 291 294 295
339 334 333 335 333 330 326 325 322 320 319 317 315 316 317 318 318 319 318 317 324 332 328 318 316 324 327 330 313 297 288 276 266 263 265 271 278 284 289 293 297 299 299 299
324 324 324 324 321 318 318 314 311 311 312 313 313 313 313 313 315 316 313 316 321 336 329 322 325 342 335 320 306 299 293 286 281 276 276 283 289 293 292 296 300 302 303 305
314 314 312 312 311 309 307 305 306 308 309 309 308 307 308 311 311 310 312 322 325 334 325 324 340 338 325 316 314 312 308 305 300 293 293 294 294 295 297 302 305 307 309 311
306 304 303 303 303 300 299 302 305 305 303 301 299 303 306 306 309 313 317 324 329 330 323 338 342 333 321 322 325 332 332 330 322 312 306 302 301 305 312 313 312 313 311 313
300 299 297 297 296 298 301 302 300 299 298 301 304 308 308 310 313 316 318 319 326 324 324 342 353 341 335 345 352 355 356 1 352 334 329 328 329 329 323 318 321 318 315 318
294 293 295 296 294 292 293 295 298 302 304 305 306 309 313 315 315 317 315 319 326 334 334 343 353 356 360 6 11 8 4 2 358 356 350 341 337 332 326 327 323 318 315 316
289 288 285 285 287 291 297 300 300 302 304 306 309 312 313 314 316 319 322 327 336 345 358 6 8 9 12 18 19 14 12 9 3 357 350 346 341 336 333 329 324 321 318 317
Height
1493 1490 1492 1494 1493 1493 1497 1497 1498 1493 1490 1486 1486 1489 1492 1495 1498 1501 1504 1505 1507 1509 1510 1511 1512 1513 1513 1513 1512 1512 1511 1510 1509 1507 1505 1503 1501 1499 1497 1494 1492 1490 1488 1486
1495 1489 1490 1492 1490 1489 1489 1490 1490 1490 1488 1482 1486 1489 1491 1493 1495 1497 1499 1501 1503 1505 1506 1507 1508 1508 1509 1509 1508 1507 1506 1505 1504 1502 1500 1498 1496 1493 1491 1489 1487 1484 1482 1479
1497 1488 1491 1495 1485 1485 1485 1483 1486 1487 1483 1482 1485 1487 1489 1490 1492 1493 1495 1497 1499 1500 1501 1502 1503 1504 1504 1504 1504 1503 1502 1500 1499 1497 1495 1493 1491 1489 1486 1484 1481 1478 1476 1473
1494 1495 1507 1487 1476 1479 1481 1480 1479 1481 1481 1482 1484 1486 1487 1487 1488 1489 1491 1492 1494 1496 1497 1498 1498 1499 1499 1499 1499 1498 1497 1496 1495 1492 1490 1488 1485 1483 1480 1478 1475 1472 1470 1468
1494 1497 1493 1479 1475 1477 1481 1480 1475 1477 1479 1480 1482 1484 1482 1482 1484 1485 1486 1488 1489 1491 1492 1493 1493 1494 1494 1494 1494 1493 1493 1491 1490 1488 1485 1483 1480 1478 1475 1472 1469 1467 1465 1462
1494 1501 1502 1483 1476 1478 1481 1482 1475 1477 1478 1478 1480 1479 1475 1477 1479 1480 1481 1483 1484 1485 1486 1486 1487 1488 1488 1489 1489 1488 1488 1486 1484 1482 1480 1477 1475 1472 1469 1467 1464 1461 1459 1457
1494 1496 1487 1476 1478 1480 1487 1485 1479 1479 1478 1477 1477 1477 1476 1475 1476 1476 1477 1477 1478 1479 1479 1480 1481 1481 1482 1483 1483 1483 1482 1481 1479 1477 1474 1472 1469 1466 1464 1461 1459 1456 1453 1451
1488 1493 1489 1479 1478 1481 1484 1483 1482 1480 1479 1477 1476 1474 1473 1473 1473 1473 1472 1472 1473 1472 1472 1473 1474 1475 1476 1477 1478 1477 1476 1475 1474 1472 1469 1467 1464 1461 1458 1456 1453 1450 1448 1445
1480 1482 1480 1482 1484 1486 1486 1484 1482 1480 1477 1475 1473 1471 1470 1469 1468 1468 1467 1467 1467 1467 1466 1466 1467 1468 1469 1471 1471 1471 1470 1469 1468 1466 1464 1461 1459 1456 1453 1451 1448 1446 1444 1441
1479 1475 1480 1484 1486 1486 1485 1483 1481 1478 1476 1473 1471 1469 1467 1466 1465 1464 1463 1462 1462 1461 1461 1460 1460 1461 1463 1464 1464 1464 1464 1463 1461 1460 1458 1456 1453 1451 1449 1446 1444 1441 1439 1436
1478 1478 1481 1485 1487 1487 1485 1483 1480 1477 1475 1473 1470 1468 1466 1464 1463 1461 1460 1458 1457 1456 1455 1455 1455 1455 1456 1457 1458 1458 1457 1456 1455 1454 1452 1450 1447 1445 1442 1440 1438 1435 1433 1431
1477 1485 1485 1488 1489 1487 1485 1483 1481 1479 1476 1474 1471 1470 1467 1465 1462 1460 1458 1456 1455 1453 1451 1451 1450 1450 1450 1450 1450 1450 1450 1449 1448 1448 1446 1444 1442 1439 1436 1433 1430 1427 1425 1423
1485 1486 1487 1489 1489 1488 1486 1485 1483 1481 1479 1476 1473 1471 1469 1466 1463 1461 1458 1455 1453 1451 1449 1448 1446 1445 1444 1444 1443 1442 1442 1442 1441 1441 1440 1437 1435 1433 1431 1428 1424 1421 1418 1416
1486 1488 1489 1490 1490 1489 1487 1486 1484 1482 1480 1477 1475 1472 1469 1467 1464 1461 1458 1455 1452 1449 1447 1445 1443 1441 1440 1438 1437 1435 1435 1434 1433 1432 1432 1430 1429 1427 1424 1422 1419 1416 1413 1410
1488 1489 1491 1491 1491 1490 1488 1486 1484 1482 1480 1477 1474 1472 1469 1466 1463 1460 1457 1454 1450 1448 1445 1443 1440 1438 1436 1433 1431 1429 1428 1427 1426 1425 1425 1424 1422 1420 1418 1416 1412 1409 1407 1405
1490 1491 1492 1492 1491 1490 1488 1486 1483 1481 1479 1476 1474 1471 1468 1465 1462 1459 1456 1452 1448 1445 1442 1439 1436 1433 1430 1427 1424 1422 1420 1419 1418 1418 1417 1417 1415 1414 1412 1410 1407 1404 1401 1400
1492 1492 1492 1492 1491 1489 1487 1485 1483 1480 1477 1475 1472 1469 1466 1463 1460 1457 1453 1450 1447 1443 1440 1436 1432 1428 1424 1421 1418 1416 1414 1412 1410 1409 1409 1409 1408 1407 1405 1403 1401 1398 1396 1394
1493 1493 1492 1491 1490 1488 1486 1483 1481 1478 1476 1473 1470 1467 1464 1461 1458 1454 1451 1447 1443 1440 1436 1432 1427 1422 1418 1414 1411 1409 1407 1406 1404 1403 1402 1402 1401 1400 1399 1397 1395 1393 1391 1389
1493 1492 1491 1490 1488 1486 1484 1481 1479 1476 1473 1470 1467 1464 1462 1459 1455 1452 1448 1444 1439 1435 1431 1427 1421 1416 1412 1408 1405 1402 1400 1399 1398 1397 1396 1395 1395 1394 1393 1391 1390 1388 1386 1384
1492 1491 1490 1488 1486 1484 1482 1479 1476 1473 1470 1467 1465 1462 1459 1456 1452 1448 1444 1441 1436 1432 1427 1422 1416 1411 1407 1403 1399 1397 1395 1393 1392 1391 1391 1390 1389 1388 1388 1386 1385 1383 1380 1378
1490 1489 1487 1485 1483 1481 1479 1476 1473 1470 1467 1464 1462 1458 1455 1452 1449 1445 1440 1436 1432 1427 1422 1417 1412 1408 1403 1399 1394 1392 1390 1388 1387 1386 1386 1385 1384 1383 1383 1381 1380 1378 1376 1374
1487 1486 1484 1482 1480 1477 1475 1472 1470 1467 1464 1461 1458 1455 1451 1448 1444 1440 1436 1432 1427 1423 1418 1414 1409 1404 1398 1394 1390 1387 1385 1383 1382 1382 1381 1380 1380 1379 1378 1376 1375 1373 1371 1369
1484 1482 1480 1478 1476 1473 1471 1468 1465 1462 1459 1456 1453 1450 1446 1443 1439 1435 1431 1427 1423 1418 1413 1409 1404 1399 1394 1390 1386 1383 1381 1379 1378 1377 1377 1376 1375 1374 1373 1372 1371 1369 1367 1365
1480 1478 1476 1474 1471 1469 1466 1463 1460 1457 1454 1451 1448 1445 1441 1437 1433 1430 1426 1422 1417 1413 1409 1404 1399 1395 1390 1386 1383 1380 1378 1376 1375 1374 1373 1372 1371 1370 1369 1368 1367 1365 1363 1362
1475 1473 1471 1469 1466 1463 1460 1457 1454 1451 1448 1445 1442 1439 1436 1432 1429 1425 1421 1417 1412 1408 1404 1400 1395 1391 1387 1383 1380 1377 1375 1373 1371 1370 1370 1369 1368 1366 1365 1364 1363 1361 1360 1358
1470 1468 1465 1463 1461 1458 1454 1451 1448 1446 1443 1440 1437 1434 1431 1427 1424 1420 1416 1412 1408 1404 1400 1396 1392 1388 1384 1381 1378 1375 1373 1371 1370 1368 1367 1366 1364 1363 1362 1360 1359 1358 1356 1355
1464 1461 1459 1456 1453 1451 1449 1446 1443 1440 1438 1435 1432 1429 1426 1422 1419 1415 1411 1408 1404 1400 1396 1392 1389 1385 1382 1380 1377 1374 1372 1370 1369 1367 1365 1364 1362 1360 1359 1357 1356 1355 1354 1353